CMS-01

Last updated on Thu Nov 21 2024 00:02:44 GMT+0000 (Coordinated Universal Time)

1 47256U 20099A 24325.07688414 -.00000164 00000+0 00000+0 0 9998 2 47256 0.0951 95.7899 0008900 167.9872 266.4982 1.00271051 14442
UTC large
Height (km)
Speed (km/s)
/
Latitude / Longitude
Inclination (degrees)
Orbital Period (minutes)
Azimuth
Elevation
Range (km)
Doppler Factor

Next 0 passes for location: London (51.5072 / 0.1276)

Sorry there are no passes over London.